Location: Cuzcurrita-R�o Tir�n
(42.5415°N, 2.9642°W)
Time: 03:28:55
(UTC+00:00)

Lacrosse 5 rocket - Pass Details

Date: 27 February 2020
Orbit: 461 x 636 km, 57.0° (Epoch: 02 April)

Event Time Altitude Azimuth Distance (km) Brightness Sun altitude
Rises 18:39:10 0° 314° (NW) 2,871 5.7 -8.3°
Reaches altitude 10° 18:42:19 10° 337° (NNW) 1,992 4.4 -8.9°
Maximum altitude 18:45:01 15° 14° (NNE) 1,682 3.6 -9.4°
Drops below altitude 10° 18:47:46 10° 50° (NE) 2,019 3.7 -9.9°
Enters shadow 18:48:14 - 55° (NE) 2,128 3.8 -10.0°
